Council Bluffs, IA

5:36 PM CST on February 09, 2016 (GMT -0600)
Council Bluffs Municipal

Weather History for KCBF - August, 2014

Change the Weather History Date:

Monday, August 11, 2014

  Actual Average (KOMA) Record (KOMA)
Temperature  
Mean Temperature 70 °F 76 °F  
Max Temperature 75 °F 86 °F 103 °F (1935)
Min Temperature 64 °F 65 °F 50 °F (1964)
Degree Days  
Heating Degree Days 0 0  
Month to date heating degree days 0  
Since 1 June heating degree days 18  
Since 1 July heating degree days 1  
Cooling Degree Days 4 11  
Month to date cooling degree days 121  
Year to date cooling degree days 798  
Since 1 June cooling degree days 716  
Growing Degree Days 20 (Base 50)    
Moisture  
Dew Point 62 °F    
Average Humidity 79    
Maximum Humidity 100    
Minimum Humidity 47    
Precipitation  
Precipitation 0.00 in 0.12 in 1.44 in (1940)
Month to date precipitation 1.37  
Year to date precipitation 20.66  
Snow  
Snow 0.00 in 0.00 in - ()
Month to date snowfall 0.0  
Since 1 July snowfall 0.0  
Snow Depth -    
Sea Level Pressure  
Sea Level Pressure 30.09 in    
Wind  
Wind Speed 7 mph (NNW)    
Max Wind Speed 16 mph    
Max Gust Speed 24 mph    
Visibility 8 miles    
Events Fog    
T = Trace of Precipitation, MM = Missing Value Source: NWS Daily Summary

Daily Weather History Graph

Daily Weather History Graph

Search for Another Location

Airport or City:

Trip Planner

Search our weather history database for the weather conditions in past years. The results will help you decide how hot, cold, wet, or windy it might be!

Date:

Astronomy

Aug. 11, 2014 Rise Set
Actual Time 6:28 AM CDT 8:27 PM CDT
Civil Twilight 5:58 AM CDT 8:57 PM CDT
Nautical Twilight 5:21 AM CDT 9:33 PM CDT
Astronomical Twilight 4:41 AM CDT 10:13 PM CDT
Moon 8:54 PM CDT (8/11) 7:35 AM CDT (8/11)
Length of Visible Light 14h 59m
Length of Day
13h 59m
Full, 99% of the Moon is Illuminated
Aug 11
Full
Aug 17
Last Quarter
Aug 25
New
Sep 2
First Quarter
Sep 8
Full

Hourly Weather History & Observations

Time (CDT) Temp. Dew Point Humidity Pressure Visibility Wind Dir Wind Speed Gust Speed Precip Events Conditions
12:15 AM 68.0 °F 68.0 °F 100% 30.06 in 0.5 mi West 4.6 mph - N/A Fog Fog
12:35 AM 68.0 °F 68.0 °F 100% 30.06 in 0.2 mi Calm Calm - N/A Fog Fog
12:55 AM 69.8 °F 69.8 °F 100% 30.06 in 0.2 mi Calm Calm - N/A Fog Fog
1:15 AM 68.0 °F 68.0 °F 100% 30.06 in 0.2 mi Calm Calm - N/A Fog Fog
1:35 AM 68.0 °F 68.0 °F 100% 30.06 in 0.5 mi Calm Calm - N/A Fog Fog
1:55 AM 68.0 °F 68.0 °F 100% 30.06 in 1.0 mi WNW 5.8 mph - N/A   Clear
2:15 AM 68.0 °F 68.0 °F 100% 30.06 in 2.5 mi NW 5.8 mph - N/A   Partly Cloudy
2:35 AM 68.0 °F 68.0 °F 100% 30.06 in 3.0 mi NW 6.9 mph - N/A   Scattered Clouds
3:15 AM 68.0 °F 68.0 °F 100% 30.05 in 6.0 mi NNW 5.8 mph - N/A   Clear
3:35 AM 68.0 °F 68.0 °F 100% 30.05 in 6.0 mi NNW 5.8 mph - N/A   Clear
3:55 AM 66.2 °F 66.2 °F 100% 30.06 in 7.0 mi NNW 8.1 mph - N/A   Clear
4:15 AM 66.2 °F 66.2 °F 100% 30.06 in 6.0 mi NNW 6.9 mph - N/A   Partly Cloudy
4:35 AM 66.2 °F 66.2 °F 100% 30.07 in 5.0 mi NW 9.2 mph - N/A   Mostly Cloudy
4:55 AM 66.2 °F 66.2 °F 100% 30.06 in 4.0 mi NNW 6.9 mph - N/A   Overcast
5:15 AM 66.2 °F 66.2 °F 100% 30.06 in 4.0 mi NNW 5.8 mph - N/A   Mostly Cloudy
5:35 AM 66.2 °F 66.2 °F 100% 30.06 in 6.0 mi North 3.5 mph - N/A   Scattered Clouds
5:55 AM 64.4 °F 64.4 °F 100% 30.06 in 8.0 mi NNW 8.1 mph - N/A   Partly Cloudy
6:15 AM 66.2 °F 66.2 °F 100% 30.06 in 7.0 mi NNW 8.1 mph 13.8 mph N/A   Partly Cloudy
6:35 AM 64.4 °F 64.4 °F 100% 30.06 in 5.0 mi NNW 6.9 mph 13.8 mph N/A   Clear
6:55 AM 64.4 °F 64.4 °F 100% 30.07 in 5.0 mi NW 6.9 mph - N/A   Partly Cloudy
7:15 AM 64.4 °F 64.4 °F 100% 30.07 in 5.0 mi NNW 6.9 mph - N/A   Clear
7:35 AM 66.2 °F 66.2 °F 100% 30.08 in 6.0 mi NNW 8.1 mph - N/A   Clear
7:55 AM 66.2 °F 66.2 °F 100% 30.08 in 9.0 mi NNW 9.2 mph - N/A   Clear
8:15 AM 66.2 °F 66.2 °F 100% 30.09 in 9.0 mi NNW 11.5 mph - N/A   Clear
8:35 AM 66.2 °F 66.2 °F 100% 30.09 in 10.0 mi NW 13.8 mph - N/A   Clear
8:55 AM 68.0 °F 66.2 °F 94% 30.10 in 10.0 mi NNW 9.2 mph 19.6 mph N/A   Clear
9:15 AM 68.0 °F 66.2 °F 94% 30.10 in 10.0 mi NNW 13.8 mph 20.7 mph N/A   Clear
9:35 AM 68.0 °F 64.4 °F 88% 30.11 in 10.0 mi NNW 9.2 mph 19.6 mph N/A   Clear
9:55 AM 69.8 °F 62.6 °F 78% 30.12 in 10.0 mi NNW 12.7 mph 19.6 mph N/A   Clear
10:15 AM 69.8 °F 62.6 °F 78% 30.12 in 10.0 mi NNW 9.2 mph 19.6 mph N/A   Clear
10:35 AM 69.8 °F 62.6 °F 78% 30.13 in 10.0 mi NNW 10.4 mph 24.2 mph N/A   Clear
10:55 AM 71.6 °F 60.8 °F 69% 30.13 in 10.0 mi NNW 10.4 mph 24.2 mph N/A   Partly Cloudy
11:15 AM 71.6 °F 59.0 °F 64% 30.13 in 10.0 mi NNW 16.1 mph 21.9 mph N/A   Scattered Clouds
11:35 AM 71.6 °F 59.0 °F 64% 30.13 in 10.0 mi NNW 15.0 mph 24.2 mph N/A   Scattered Clouds
12:15 PM 73.4 °F 59.0 °F 61% 30.12 in 10.0 mi NNW 13.8 mph 23.0 mph N/A   Mostly Cloudy
12:35 PM 73.4 °F 59.0 °F 61% 30.12 in 10.0 mi NNW 12.7 mph 23.0 mph N/A   Scattered Clouds
12:55 PM 73.4 °F 59.0 °F 61% 30.12 in 10.0 mi NNW 13.8 mph 23.0 mph N/A   Scattered Clouds
1:15 PM 73.4 °F 59.0 °F 61% 30.12 in 10.0 mi North 11.5 mph 21.9 mph N/A   Scattered Clouds
1:35 PM 73.4 °F 60.8 °F 65% 30.12 in 10.0 mi NNW 9.2 mph 18.4 mph N/A   Mostly Cloudy
1:55 PM 73.4 °F 60.8 °F 65% 30.11 in 10.0 mi NNW 12.7 mph 21.9 mph N/A   Scattered Clouds
2:15 PM 73.4 °F 59.0 °F 61% 30.11 in 10.0 mi NNW 12.7 mph 21.9 mph N/A   Scattered Clouds
2:35 PM 75.2 °F 59.0 °F 57% 30.11 in 10.0 mi NNW 15.0 mph 23.0 mph N/A   Scattered Clouds
2:55 PM 75.2 °F 59.0 °F 57% 30.11 in 10.0 mi NNW 12.7 mph 20.7 mph N/A   Partly Cloudy
3:15 PM 75.2 °F 57.2 °F 53% 30.11 in 10.0 mi NNW 12.7 mph 23.0 mph N/A   Partly Cloudy
3:35 PM 75.2 °F 55.4 °F 50% 30.10 in 10.0 mi NNW 12.7 mph 23.0 mph N/A   Clear
3:55 PM 75.2 °F 57.2 °F 53% 30.10 in 10.0 mi NNW 11.5 mph 21.9 mph N/A   Clear
4:15 PM 75.2 °F 53.6 °F 47% 30.10 in 10.0 mi NNW 13.8 mph 23.0 mph N/A   Clear
4:55 PM 75.2 °F 55.4 °F 50% 30.10 in 10.0 mi NNW 10.4 mph 21.9 mph N/A   Clear
5:15 PM 75.2 °F 55.4 °F 50% 30.10 in 10.0 mi NNW 13.8 mph 20.7 mph N/A   Clear
5:35 PM 75.2 °F 55.4 °F 50% 30.10 in 10.0 mi NNW 10.4 mph 19.6 mph N/A   Scattered Clouds
5:55 PM 73.4 °F 57.2 °F 57% 30.10 in 10.0 mi NNW 10.4 mph - N/A   Partly Cloudy
6:15 PM 73.4 °F 57.2 °F 57% 30.09 in 10.0 mi NNW 12.7 mph - N/A   Scattered Clouds
6:35 PM 73.4 °F 57.2 °F 57% 30.09 in 10.0 mi NNW 8.1 mph 17.3 mph N/A   Mostly Cloudy
7:15 PM 71.6 °F 57.2 °F 60% 30.09 in 10.0 mi Variable 5.8 mph - N/A   Clear
7:35 PM 71.6 °F 57.2 °F 60% 30.09 in 10.0 mi NNW 9.2 mph - N/A   Clear
7:55 PM 71.6 °F 57.2 °F 60% 30.09 in 10.0 mi NW 6.9 mph - N/A   Clear
8:15 PM 69.8 °F 59.0 °F 68% 30.09 in 10.0 mi NW 6.9 mph - N/A   Clear
8:35 PM 68.0 °F 59.0 °F 73% 30.09 in 10.0 mi NW 6.9 mph - N/A   Clear
8:55 PM 66.2 °F 59.0 °F 78% 30.09 in 10.0 mi NW 5.8 mph - N/A   Clear